Flag for Malta Weather past 2 weeks in Valletta, Malta

Now
95 °F

Passing clouds.


Feels Like: 97 °F
Forecast: 78 / 96 °F
Wind: 7 mph from East

Location: Luqa

Current Time: Aug 1, 2015 at 12:00:01 PM

Latest Report: Aug 1, 2015 at 11:15 AM


Visibility: N/A

Pressure: 29.92 "Hg

Humidity: 36%

Dew point: 64 °F

Location of VallettaLocation

Historic Weather in Valletta — Graph

°F

Valletta temperature yesterday

Maximum temperature yesterday: 100 °F (at 4:45 PM)
Minimum temperature yesterday: 77 °F (at 4:15 AM)
Average temperature yesterday: 89 °F

Past Weeks' High & Low Weather Summary

 TemperatureHumidityPressure
High100 °F (Jul 31, 4:45 PM)94% (Jul 23, 3:15 AM)30.07 "Hg (Jul 23, 3:15 AM)
Low75 °F (Jul 18, 2:45 AM)18% (Jul 31, 12:15 PM)29.80 "Hg (Jul 23, 5:15 PM)
Average84 °F62%29.88 "Hg
* Reported Jul 17 10:15 AM — Aug 1 10:45 AM, Valletta, Weather by CustomWeather, © 2015

Note: Actual official high and low records may vary slightly from our data, if they occured in-between our weather recording intervals... More about our weather records

Advertising

Valletta weather history for previous 24 hours

 ConditionsComfort  
Time TempWeatherWind HumidityBarometerVisibility
10:45 AM
Sat, Aug 1
93 °FPassing clouds.6 mph34%29.92 "HgN/A
10:15 AM93 °FPassing clouds.7 mph34%29.92 "HgN/A
9:45 AM93 °FPassing clouds.8 mph32%29.89 "HgN/A
9:15 AM91 °FSunny.7 mph36%29.89 "Hg10 mi
8:45 AM90 °FPassing clouds.5 mph55%29.89 "HgN/A
8:15 AM88 °FPassing clouds.3 mph55%29.89 "HgN/A
7:45 AM86 °FPassing clouds.3 mph52%29.89 "HgN/A
7:15 AM82 °FPassing clouds.5 mph51%29.86 "HgN/A
6:45 AM81 °FPassing clouds.5 mph58%29.86 "HgN/A
6:15 AM81 °FClear.2 mph51%29.86 "Hg10 mi
5:45 AM82 °FClear.5 mph40%29.83 "Hg10 mi
5:15 AM82 °FClear.7 mph40%29.86 "Hg10 mi
4:45 AM84 °FClear.6 mph37%29.83 "Hg10 mi
4:15 AM82 °FClear.5 mph45%29.83 "Hg10 mi
3:45 AM81 °FPassing clouds.3 mph48%29.86 "HgN/A
3:15 AM82 °FClear.1 mph42%29.86 "Hg10 mi
2:45 AM82 °FClear.2 mph45%29.86 "Hg10 mi
2:15 AM84 °FClear.1 mph45%29.86 "Hg10 mi
1:45 AM84 °FClear.6 mph48%29.86 "Hg10 mi
1:15 AM82 °FClear.2 mph51%29.86 "Hg10 mi
12:45 AM84 °FClear.2 mph48%29.86 "Hg10 mi
12:15 AM84 °FClear.7 mph48%29.86 "Hg10 mi
11:45 PM
Fri, Jul 31
86 °FClear.7 mph40%29.86 "Hg10 mi
11:15 PM88 °FClear.7 mph33%29.86 "Hg10 mi
10:45 PM88 °FClear.6 mph33%29.86 "Hg10 mi
10:15 PM88 °FClear.6 mph33%29.86 "Hg10 mi
9:45 PM88 °FPassing clouds.5 mph35%29.86 "HgN/A
9:15 PM88 °FPassing clouds.5 mph33%29.83 "HgN/A
8:45 PM88 °FSunny.7 mph46%29.83 "Hg10 mi
8:15 PM88 °FSunny.7 mph52%29.83 "Hg10 mi
7:45 PM90 °FSunny.6 mph43%29.83 "Hg10 mi
7:15 PM91 °FSunny.8 mph41%29.83 "Hg10 mi
6:45 PM97 °FSunny.12 mph22%29.83 "Hg10 mi
6:15 PM97 °FSunny.13 mph25%29.83 "Hg10 mi
5:45 PM97 °FSunny.13 mph27%29.83 "Hg10 mi
5:15 PM99 °FSunny.12 mph22%29.83 "Hg10 mi
4:45 PM100 °FSunny.10 mph24%29.83 "Hg10 mi
4:15 PM99 °FSunny.13 mph27%29.83 "Hg10 mi
3:45 PM99 °FSunny.13 mph29%29.83 "Hg10 mi
3:15 PM99 °FSunny.14 mph31%29.86 "Hg10 mi
2:45 PM99 °FSunny.13 mph27%29.86 "Hg10 mi
2:15 PM99 °FSunny.15 mph25%29.86 "Hg10 mi
1:45 PM97 °FPassing clouds.10 mph28%29.86 "HgN/A
1:15 PM97 °FPassing clouds.14 mph27%29.86 "HgN/A
12:45 PM97 °FSunny.14 mph25%29.86 "Hg10 mi
12:15 PM99 °FPassing clouds.10 mph18%29.86 "HgN/A
Weather by CustomWeather, © 2015

See weather overviewHow to use our weather pages